{"data":{"norad_id":67795,"intl_designator":"2026-030AH","name":"KUIPER-00279","alt_names":[],"object_type":"PAYLOAD","status":"ACTIVE","operator":null,"country":"US","launch_date":"2026-02-12","launch_site_code":"FRGUI","launch_vehicle":null,"mission":null,"orbit_class":"UNKNOWN","rcs_meters":null,"size_class":null,"mass_kg":null,"dimensions":null,"purposes":[],"wikipedia_slug":null,"has_3d_model":false,"image_url":null,"decayed_at":null,"tle_current":{"epoch":"2026-05-24T21:33:30.159072Z","epoch_age_seconds":90651,"freshness":"FRESH","line1":"1 67795U 26030AH  26144.89826573 -.00003508  00000+0 -88893-4 0  9997","line2":"2 67795  51.8799 211.6186 0007776 325.4902  34.5578 15.35557573 16805","mean_motion":15.35557573,"eccentricity":0.0007776,"inclination_deg":51.8799,"raan_deg":211.6186,"arg_perigee_deg":325.4902,"mean_anomaly_deg":34.5578,"bstar":-8.8893e-5,"rev_number":1680,"period_min":93.77701138139,"perigee_km":453.94808717505,"apogee_km":464.5816145335,"semimajor_km":6837.4018508543,"source":"CELESTRAK","updated_at":"2026-05-25T13:38:07.264578Z"}}}